Location: Ladrillo (historical)
(32.8195°N, 117.2231°W)
Time: 10:50:38
(UTC+00:00)

Altair - All Passes

Search period start: 01 March 2021 00:00
Search period end: 11 March 2021 00:00
Orbit: 1501 x 1682 km, 47.2° (Epoch: 28 February)

Date Brightness Start Highest point End Pass type
(mag) Time Alt. Az. Time Alt. Az. Time Alt. Az.
01 Mar - 01:53:59 10° SW 02:03:02 68° SE 02:12:18 10° ENE visible
01 Mar - 03:59:17 10° W 04:08:07 48° NNW 04:17:15 10° NE visible
01 Mar - 06:06:36 10° WNW 06:14:57 34° N 06:23:34 10° ENE visible
01 Mar - 08:12:20 10° NW 08:21:42 52° NNE 08:31:23 10° ESE night (unlit)
01 Mar - 10:17:10 10° WNW 10:26:46 62° SW 10:36:38 10° SSE visible
01 Mar - 12:25:56 10° W 12:30:19 14° WSW 12:34:46 10° SSW visible
01 Mar - 23:31:11 10° SE 23:34:36 12° ESE 23:38:02 10° E daylight
02 Mar - 01:28:57 10° SSW 01:37:55 62° SE 01:47:04 10° ENE daylight
02 Mar - 03:33:57 10° W 03:42:51 50° NNW 03:52:02 10° NE visible
02 Mar - 05:41:17 10° WNW 05:49:35 33° N 05:58:09 10° ENE visible
02 Mar - 07:47:09 10° NW 07:56:24 50° NNE 08:05:58 10° E visible
02 Mar - 09:51:56 10° WNW 10:01:35 67° SW 10:11:32 10° SE visible
02 Mar - 11:59:53 10° W 12:05:14 16° WSW 12:10:40 10° SSW visible
02 Mar - 23:08:08 10° SE 23:09:34 10° ESE 23:10:59 10° ESE daylight
03 Mar - 01:03:56 10° SSW 01:12:48 56° SE 01:21:49 10° ENE daylight
03 Mar - 03:08:40 10° WSW 03:17:35 53° NNW 03:26:48 10° NE visible
03 Mar - 05:15:57 10° WNW 05:24:13 33° N 05:32:45 10° ENE visible
03 Mar - 07:21:58 10° NW 07:31:06 47° NNE 07:40:33 10° E visible
03 Mar - 09:26:44 10° NW 09:36:25 72° SW 09:46:24 10° SE night (unlit)
03 Mar - 11:34:04 10° W 11:40:09 18° SW 11:46:20 10° SSW visible
04 Mar - 00:38:57 10° SSW 00:47:42 51° SE 00:56:33 10° ENE daylight
04 Mar - 02:43:21 10° WSW 02:52:20 56° NNW 03:01:36 10° NE visible
04 Mar - 04:50:37 10° WNW 04:58:52 34° N 05:07:22 10° ENE visible
04 Mar - 06:56:47 10° NW 07:05:48 45° NNE 07:15:07 10° E visible
04 Mar - 09:01:32 10° NW 09:11:14 78° SW 09:21:15 10° SE night (unlit)
04 Mar - 11:08:23 10° W 11:15:03 21° SW 11:21:52 10° SSW visible
05 Mar - 00:14:01 10° SSW 00:22:36 47° SE 00:31:17 10° ENE daylight
05 Mar - 02:18:05 10° WSW 02:27:07 60° NNW 02:36:23 10° NE visible
05 Mar - 04:25:16 10° WNW 04:33:30 34° N 04:42:01 10° ENE visible
05 Mar - 06:31:35 10° NW 06:40:29 43° NNE 06:49:41 10° E visible
05 Mar - 08:36:21 10° NW 08:46:03 84° SW 08:56:05 10° SE night (unlit)
05 Mar - 10:42:48 10° WNW 10:49:57 23° SW 10:57:17 10° S night (unlit)
05 Mar - 23:49:06 10° SSW 23:57:31 42° SE 00:05:59 10° ENE daylight
06 Mar - 01:52:49 10° WSW 02:01:53 64° NNW 02:11:11 10° NE visible
06 Mar - 03:59:54 10° WNW 04:08:10 34° N 04:16:40 10° NE visible
06 Mar - 06:06:23 10° NW 06:15:10 41° NNE 06:24:15 10° E visible
06 Mar - 08:11:11 10° NW 08:20:51 89° SW 08:30:52 10° SE visible
06 Mar - 10:17:17 10° WNW 10:24:51 26° SW 10:32:37 10° S night (unlit)
06 Mar - 23:24:14 10° SSW 23:32:26 38° SE 23:40:40 10° ENE daylight
07 Mar - 01:27:34 10° WSW 01:36:41 68° NNW 01:46:00 10° NE daylight
07 Mar - 03:34:33 10° WNW 03:42:49 35° N 03:51:20 10° NE visible
07 Mar - 05:41:10 10° NW 05:49:51 39° NNE 05:58:48 10° E visible
07 Mar - 07:46:01 10° NW 07:55:39 85° NE 08:05:38 10° SE visible
07 Mar - 09:51:50 10° WNW 09:59:45 29° SW 10:07:53 10° S night (unlit)
07 Mar - 22:59:24 10° S 23:07:22 34° SE 23:15:19 10° ENE daylight
08 Mar - 01:02:20 10° WSW 01:11:29 73° NW 01:20:48 10° NE daylight
08 Mar - 03:09:11 10° WNW 03:17:29 36° NNW 03:26:01 10° NE visible
08 Mar - 05:15:57 10° NW 05:24:31 38° NNE 05:33:21 10° E visible
08 Mar - 07:20:51 10° NW 07:30:26 80° NE 07:40:23 10° ESE visible
08 Mar - 09:26:26 10° WNW 09:34:38 32° SW 09:43:06 10° S night (unlit)
08 Mar - 22:34:36 10° S 22:42:17 31° SE 22:49:57 10° ENE daylight
09 Mar - 00:37:07 10° WSW 00:46:18 78° NW 00:55:37 10° NE daylight
09 Mar - 02:43:49 10° WNW 02:52:09 37° NNW 03:00:43 10° NE visible
09 Mar - 04:50:43 10° NW 04:59:11 37° NNE 05:07:54 10° ENE visible
09 Mar - 06:55:41 10° NW 07:05:13 75° NE 07:15:06 10° ESE visible
09 Mar - 09:01:04 10° WNW 09:09:32 35° SW 09:18:15 10° S night (unlit)
09 Mar - 22:09:53 10° S 22:17:13 28° SE 22:24:32 10° ENE daylight
10 Mar - 00:11:56 10° SW 00:21:07 84° NW 00:30:26 10° NE daylight
10 Mar - 02:18:26 10° W 02:26:50 38° NNW 02:35:26 10° NE visible
10 Mar - 04:25:28 10° NW 04:33:50 35° N 04:42:27 10° ENE visible
10 Mar - 06:30:32 10° NW 06:39:59 70° NNE 06:49:49 10° ESE visible
10 Mar - 08:35:45 10° WNW 08:44:24 39° SW 08:53:21 10° SSE night (unlit)
10 Mar - 21:45:11 10° S 21:52:10 25° SE 21:59:05 10° ENE daylight
